Hourly Data Report for September 19, 2017

All times are specified in Local Standard Time (LST). Add 1 hour to adjust for Daylight Saving Time where and when it is observed.

GRISE FIORD CLIMATE
NUNAVUT

76°25'22.040" N
82°54'08.020" W
44.50 m
2402351
71971
NGC

Download Data

Hourly Data (September 2017)
Hourly Data Report for September 19, 2017
Temp Definition
°C
Dew Point Temp Definition
°C
Rel Hum Definition
%
Wind Dir Definition
10's deg

Wind Spd Definition
km/h
Visibility Definition
km
Stn Press Definition
kPa
Hmdx Definition


Wind Chill Definition


Weather Definition


TIME
00:00 -5.7 -9.3 76 10 4   101.45   -8 LegendNANA
01:00 -5.6 -9.3 75 34 15   101.50   -11 LegendNANA
02:00 -5.6 -9.3 75 1 3   101.56   -7 LegendNANA
03:00 -6.6 -10.1 77 13 7   101.62   -10 LegendNANA
04:00 -8.1 -11.1 79 9 4   101.67   -10 LegendNANA
05:00 -6.5 -9.9 76 25 4   101.69   -8 LegendNANA
06:00 -6.8 -10.4 75 11 10   101.74   -11 LegendNANA
07:00 -6.6 -10.6 73 2 4   101.77   -9 LegendNANA
08:00 -4.5 -9.5 68 12 4   101.82   -6 LegendNANA
09:00 -6.1 -10.5 71 1 3   101.87   -8 LegendNANA
10:00 -5.2 -10.0 69 8 8   101.89   -9 LegendNANA
11:00 -4.2 -10.0 64 3 6   101.93   -7 LegendNANA
12:00 -3.7 -9.3 65 14 9   101.93   -7 LegendNANA
13:00 -3.3 -8.4 68 15 12   101.98   -8 LegendNANA
14:00 -2.7 -8.7 63 16 5   102.01   -5 LegendNANA
15:00 -3.1 -8.6 66 16 5   102.04   -5 LegendNANA
16:00 -2.9 -8.1 67 17 8   102.08   -6 LegendNANA
17:00 -3.2 -7.8 70 16 5   102.12   -5 LegendNANA
18:00 -3.3 -7.5 73 15 13   102.13   -8 LegendNANA
19:00 -4.3 -7.9 76 16 5   102.19   -6 LegendNANA
20:00 -5.6 -8.6 80 9 5   102.23   -8 LegendNANA
21:00 -5.5 -8.5 80 9 3   102.27   -7 LegendNANA
22:00 -5.8 -8.0 85 12 4   102.29   -8 LegendNANA
23:00 -6.3 -8.5 85 11 8   102.32   -10 LegendNANA

Notes on Data Quality.

Legend

  • E = Estimated
  • M = Missing
  • NA = Not Available
  • ‡ = Partner data that is not subject to review by the National Climate Archives
Date modified: